FW5810 Weather Reports


time (UTC)temp
C
wind
direction
speed
KPH
gust
KPH
rain 1hr
cm
rain 24hr
cm
rain mn
cm
humidity
%
barometer
mb
20260904032306 20 170 4.8 6.4 0.00 1.70 1.70 97 1015.2
20260904031759 20 224 1.6 12.9 0.00 1.70 1.70 97 1015.2
20260904031254 20 250 4.8 8.0 0.00 1.70 1.70 97 1015.3
20260904030750 20 143 1.6 11.3 0.00 1.70 1.70 97 1015.4
20260904030245 20 228 4.8 6.4 0.00 1.70 1.70 97 1015.3
20260904025736 20 98 4.8 6.4 0.00 1.70 1.70 97 1015.4
20260904025231 20 214 0.0 4.8 0.00 1.70 1.70 97 1015.4
20260904024726 20 338 3.2 4.8 0.00 1.70 1.70 97 1015.4
20260904024221 20 262 4.8 4.8 0.00 1.70 1.70 97 1015.6
20260904023712 20 210 3.2 8.0 0.00 1.70 1.70 97 1015.5
20260904023208 20 213 6.4 8.0 0.00 1.70 1.70 97 1015.3
20260904022707 20 231 4.8 8.0 0.00 1.70 1.70 98 1015.2
20260904022204 20 133 4.8 4.8 0.00 1.70 1.70 97 1015.3
20260904021659 20 315 0.0 6.4 0.00 1.70 1.70 97 1015.2
20260904021153 20 239 4.8 8.0 0.00 1.70 1.70 97 1015.4
20260904020645 20 168 3.2 8.0 0.00 1.70 1.70 97 1015.4
20260904020139 20 100 1.6 1.6 0.00 1.70 1.70 97 1015.6
20260904015638 20 224 3.2 4.8 0.00 1.70 1.70 97 1015.5
20260904015137 20 222 3.2 4.8 0.00 1.70 1.70 97 1015.4
20260904014636 20 127 1.6 1.6 0.00 1.70 1.70 97 1015.3
20260904014132 20 120 0.0 1.6 0.00 1.70 1.70 97 1015.3
20260904013629 20 122 1.6 4.8 0.00 1.70 1.70 97 1015.2
20260904013124 20 161 1.6 1.6 0.00 1.70 1.70 97 1015.1
20260904012620 20 95 0.0 1.6 0.00 1.70 1.70 97 1015.3
20260904012119 20 85 1.6 6.4 0.00 1.70 1.70 97 1015.2
20260904011618 20 93 1.6 1.6 0.00 1.70 1.70 97 1015.1
20260904011114 20 86 0.0 1.6 0.00 1.70 1.70 97 1015.0
20260904010609 20 335 1.6 1.6 0.00 1.70 1.70 97 1015.4
20260904010106 20 121 0.0 6.4 0.00 1.70 1.70 97 1015.6
20260904005600 20 105 3.2 4.8 0.00 1.70 1.70 97 1015.8
20260904005056 20 138 1.6 4.8 0.00 1.70 1.70 97 1015.6
20260904004551 20 63 0.0 0.0 0.00 1.70 1.70 96 1016.0
20260904004046 20 230 0.0 0.0 0.00 1.70 1.70 96 1016.0
20260904003542 20 116 4.8 4.8 0.00 1.70 1.70 96 1015.5
20260904003038 20 93 4.8 8.0 0.00 1.70 1.70 96 1015.6
20260904002533 20 76 1.6 1.6 0.00 1.70 1.70 96 1015.7
20260904002033 20 63 1.6 1.6 0.13 1.70 1.70 96 1015.9
20260904001529 20 76 4.8 8.0 0.13 1.70 1.70 96 1015.8
20260904001028 20 65 0.0 6.4 0.18 1.68 1.68 96 1016.1
20260904000527 20 79 0.0 6.4 0.48 1.68 1.68 95 1016.2
20260904000023 20 89 1.6 6.4 0.61 1.65 1.65 95 1016.4
20260903235518 20 16 4.8 8.0 0.61 1.60 1.60 95 1017.0
20260903235014 20 57 3.2 8.0 0.43 1.55 1.55 95 1017.3
20260903234509 20 36 8.0 8.0 0.48 1.50 1.50 95 1017.6
20260903234005 20 44 1.6 6.4 0.79 1.45 1.45 94 1017.9
20260903233501 20 55 11.3 17.7 1.19 1.42 1.42 94 1017.7
20260903232955 20 357 12.9 16.1 1.55 1.30 1.30 94 1017.8
20260903232451 20 341 6.4 12.9 1.85 1.19 1.19 93 1018.1
20260903231950 21 320 4.8 11.3 1.19 1.02 1.02 92 1018.2
20260903231446 21 342 12.9 17.7 0.79 0.89 0.89 92 1017.8
20260903230940 21 41 11.3 19.3 0.30 0.79 0.79 91 1017.1
20260903230436 21 357 27.4 41.8 0.13 0.76 0.76 88 1016.7
20260903225932 22 350 25.7 37.0 0.00 0.74 0.74 86 1016.3
20260903225427 23 356 35.4 53.1 0.00 0.74 0.74 83 1016.6
20260903224924 24 21 48.3 59.5 0.00 0.74 0.74 81 1016.3
20260903224419 23 344 9.7 11.3 0.00 0.74 0.74 85 1014.8
20260903223915 23 358 8.0 8.0 0.00 0.74 0.74 85 1014.4
20260903223414 23 5 12.9 16.1 0.00 0.74 0.74 86 1014.4
20260903222913 23 343 4.8 16.1 0.00 0.74 0.74 87 1014.3
20260903222408 23 330 3.2 4.8 0.00 0.74 0.74 88 1014.4
20260903221902 23 66 4.8 11.3 0.00 0.74 0.74 88 1014.4
20260903221402 23 333 1.6 6.4 0.00 0.74 0.74 87 1014.5
20260903220900 24 169 1.6 4.8 0.00 0.74 0.74 86 1014.3
20260903220348 24 72 3.2 8.0 0.00 0.74 0.74 83 1013.9
20260903215846 24 24 1.6 1.6 0.00 0.74 0.74 81 1014.1
20260903215344 24 139 3.2 4.8 0.00 0.74 0.74 83 1014.7
20260903214841 24 124 3.2 11.3 0.00 0.74 0.74 80 1014.1
20260903214337 24 200 4.8 6.4 0.00 0.74 0.74 84 1014.4
20260903213831 25 147 0.0 4.8 0.00 0.74 0.74 82 1014.3
20260903213327 25 349 1.6 4.8 0.00 0.74 0.74 81 1014.6
20260903212823 24 145 3.2 8.0 0.00 0.74 0.74 81 1014.2
20260903212319 25 314 1.6 1.6 0.00 0.74 0.74 81 1014.0
20260903211818 25 248 8.0 11.3 0.00 0.74 0.74 80 1013.8
20260903211315 25 283 6.4 11.3 0.00 0.74 0.74 79 1013.8
20260903210810 25 220 4.8 11.3 0.00 0.74 0.74 77 1014.0
20260903210305 25 106 6.4 16.1 0.00 0.74 0.74 75 1013.8
20260903205759 25 219 1.6 17.7 0.00 0.74 0.74 73 1013.8
20260903205259 26 162 9.7 11.3 0.00 0.74 0.74 69 1013.9
20260903204754 26 117 4.8 4.8 0.00 0.74 0.74 66 1013.8
20260903204250 26 99 4.8 8.0 0.00 0.74 0.74 66 1014.1
20260903203751 26 149 9.7 11.3 0.00 0.74 0.74 66 1014.0
20260903203246 26 106 4.8 6.4 0.00 0.74 0.74 67 1014.3
20260903202745 26 64 3.2 8.0 0.00 0.74 0.74 64 1014.4
20260903202242 26 121 11.3 19.3 0.00 0.74 0.74 65 1014.3
20260903201741 26 162 12.9 16.1 0.00 0.74 0.74 67 1014.5
20260903201236 25 351 8.0 17.7 0.00 0.74 0.74 65 1014.8
20260903200735 23 351 20.9 25.7 0.00 0.74 0.74 66 1014.8
20260903200231 25 151 29.0 57.9 0.00 0.74 0.74 65 1014.0
20260903195726 25 225 6.4 19.3 0.00 0.74 0.74 66 1014.3
20260903195222 26 226 14.5 29.0 0.00 0.74 0.74 62 1013.8
20260903194722 26 229 9.7 22.5 0.00 0.74 0.74 62 1013.5
20260903194218 27 247 6.4 17.7 0.00 0.74 0.74 58 1013.8
20260903193713 28 212 9.7 19.3 0.00 0.74 0.74 56 1013.8
20260903193208 28 223 20.9 29.0 0.00 0.74 0.74 55 1013.9
20260903192704 30 291 14.5 24.1 0.00 0.74 0.74 59 1014.1
20260903192200 31 268 12.9 22.5 0.00 0.74 0.74 62 1013.9
20260903191656 31 236 1.6 6.4 0.00 0.74 0.74 65 1013.4
20260903191155 31 232 3.2 6.4 0.00 0.74 0.74 66 1013.4
20260903190650 31 217 6.4 8.0 0.00 0.74 0.74 64 1013.9
20260903190145 32 215 6.4 11.3 0.00 0.74 0.74 62 1014.2
20260903185640 33 151 3.2 4.8 0.00 0.74 0.74 61 1014.5
20260903185135 33 145 8.0 12.9 0.00 0.74 0.74 58 1014.4
20260903184632 32 227 1.6 6.4 0.00 0.74 0.74 60 1014.4
20260903184127 32 125 4.8 12.9 0.00 0.74 0.74 62 1014.6
20260903183625 32 184 4.8 8.0 0.00 0.74 0.74 60 1014.7
20260903183121 32 42 0.0 4.8 0.00 0.74 0.74 63 1015.0
20260903182620 32 199 4.8 8.0 0.00 0.74 0.74 61 1014.8
20260903182116 32 169 6.4 8.0 0.00 0.74 0.74 62 1014.8
20260903181614 31 267 3.2 8.0 0.00 0.74 0.74 65 1015.0
20260903181109 31 351 1.6 6.4 0.00 0.74 0.74 63 1014.9
20260903180605 31 238 9.7 16.1 0.00 0.74 0.74 64 1014.9
20260903180059 31 240 8.0 11.3 0.00 0.74 0.74 65 1015.1
20260903175558 31 284 3.2 11.3 0.00 0.74 0.74 65 1015.0
20260903175058 31 355 11.3 12.9 0.00 0.74 0.74 64 1015.1
20260903174553 31 236 6.4 8.0 0.00 0.74 0.74 65 1015.1
20260903174047 30 251 8.0 11.3 0.00 0.74 0.74 69 1015.2
20260903173542 30 283 4.8 6.4 0.00 0.74 0.74 67 1015.4
20260903173038 31 262 3.2 8.0 0.00 0.74 0.74 67 1015.5
20260903172533 31 273 4.8 4.8 0.00 0.74 0.74 66 1015.5
20260903172028 30 255 4.8 8.0 0.00 0.74 0.74 66 1015.7
20260903171523 30 260 1.6 4.8 0.00 0.74 0.74 67 1015.6
20260903171019 30 328 4.8 12.9 0.00 0.74 0.74 68 1015.6
20260903170517 30 271 4.8 11.3 0.00 0.74 0.74 67 1015.8
20260903170013 30 142 4.8 8.0 0.00 0.74 0.74 70 1015.8
20260903165505 30 225 6.4 8.0 0.00 0.74 0.74 67 1015.7
20260903165000 29 273 1.6 11.3 0.00 0.74 0.74 68 1015.9
20260903164455 29 165 4.8 12.9 0.00 0.74 0.74 69 1015.9
20260903163955 29 256 4.8 6.4 0.00 0.74 0.74 70 1016.0
20260903163451 28 315 4.8 8.0 0.00 0.74 0.74 71 1016.0
20260903162946 28 120 1.6 8.0 0.00 0.74 0.74 70 1015.9
20260903162437 28 148 4.8 6.4 0.00 0.74 0.74 72 1015.9
20260903161932 28 269 8.0 12.9 0.00 0.74 0.74 71 1016.0
20260903161422 28 279 6.4 16.1 0.00 0.74 0.74 71 1015.9
20260903160918 28 209 4.8 8.0 0.00 0.74 0.74 72 1015.9
20260903160417 28 271 11.3 16.1 0.00 0.74 0.74 69 1016.1
20260903155916 28 164 3.2 4.8 0.00 0.74 0.74 75 1016.2
20260903155411 28 225 11.3 12.9 0.00 0.74 0.74 71 1016.3
20260903154907 28 227 8.0 16.1 0.00 0.74 0.74 72 1016.2
20260903154402 28 335 3.2 8.0 0.00 0.74 0.74 73 1016.4
20260903153857 27 237 3.2 16.1 0.00 0.74 0.74 74 1016.5
20260903153352 27 157 9.7 12.9 0.00 0.74 0.74 74 1016.3
20260903152849 27 43 6.4 8.0 0.00 0.74 0.74 79 1016.3
20260903152344 27 226 3.2 6.4 0.00 0.74 0.74 80 1016.5
20260903151839 27 191 9.7 12.9 0.00 0.74 0.74 76 1016.5
20260903151334 26 234 4.8 6.4 0.00 0.74 0.74 79 1016.4
20260903150829 26 232 3.2 8.0 0.00 0.74 0.74 80 1016.5
20260903150324 26 237 8.0 11.3 0.00 0.74 0.74 80 1016.2
20260903145818 26 177 4.8 17.7 0.00 0.74 0.74 81 1016.3
20260903145314 25 217 8.0 11.3 0.00 0.74 0.74 81 1016.4
20260903144813 25 148 3.2 6.4 0.00 0.74 0.74 83 1016.6
20260903144308 25 129 6.4 12.9 0.00 0.74 0.74 81 1016.6
20260903143804 25 198 4.8 8.0 0.00 0.74 0.74 83 1016.6
20260903143300 24 134 1.6 1.6 0.00 0.74 0.74 85 1016.6
20260903142756 24 129 4.8 6.4 0.00 0.74 0.74 85 1016.4
20260903142251 24 130 3.2 11.3 0.00 0.74 0.74 85 1016.3
20260903141747 24 102 3.2 6.4 0.00 0.74 0.74 87 1016.4
20260903141242 23 160 6.4 11.3 0.00 0.74 0.74 87 1016.4
20260903140737 23 141 8.0 8.0 0.00 0.74 0.74 87 1016.3
20260903140232 22 130 1.6 6.4 0.00 0.74 0.74 90 1016.5
20260903135728 22 175 8.0 11.3 0.00 0.74 0.74 90 1016.5
20260903135223 22 142 3.2 4.8 0.00 0.74 0.74 92 1016.4
20260903134721 22 130 4.8 6.4 0.00 0.74 0.74 92 1016.6
20260903134218 22 144 1.6 6.4 0.00 0.74 0.74 91 1016.4
20260903133715 22 136 6.4 8.0 0.00 0.74 0.74 91 1016.4
20260903133212 22 205 3.2 4.8 0.00 0.74 0.74 93 1016.4
20260903132711 22 138 4.8 6.4 0.00 0.74 0.74 93 1016.6
20260903132206 22 67 1.6 1.6 0.00 0.74 0.74 93 1016.5
20260903131701 22 135 6.4 6.4 0.00 0.74 0.74 93 1016.5
20260903131200 21 96 1.6 1.6 0.00 0.74 0.74 93 1016.5
20260903130655 21 120 1.6 4.8 0.00 0.74 0.74 94 1016.4
20260903130150 21 219 1.6 1.6 0.00 0.74 0.74 96 1016.5
20260903125649 21 132 3.2 6.4 0.00 0.74 0.74 96 1016.5
20260903125144 21 181 1.6 4.8 0.00 0.74 0.74 96 1016.5
20260903124643 21 233 0.0 1.6 0.00 0.74 0.74 97 1016.4
20260903124138 20 216 1.6 4.8 0.00 0.74 0.74 97 1016.5
20260903123637 20 178 0.0 0.0 0.00 0.74 0.74 97 1016.5
20260903123136 20 180 1.6 1.6 0.00 0.74 0.74 96 1016.4
20260903122630 20 123 1.6 1.6 0.00 0.74 0.74 96 1016.5
20260903122125 20 121 0.0 0.0 0.00 0.74 0.74 96 1016.3
20260903121624 20 123 1.6 4.8 0.00 0.74 0.74 96 1016.5
20260903121120 20 123 1.6 4.8 0.00 0.74 0.74 96 1016.6
20260903120619 20 92 0.0 1.6 0.48 0.74 0.74 95 1016.4
20260903120113 20 253 3.2 1.6 2.77 0.74 0.74 95 1017.2
20260903115611 20 74 1.6 1.6 3.48 0.61 0.61 93 1017.2
20260903115107 20 351 8.0 8.0 1.07 0.18 0.18 92 1018.0
20260903114602 20 7 3.2 1.6 0.18 0.03 0.03 91 1017.0
20260903114058 20 258 3.2 4.8 0.00 0.00 0.00 89 1016.6
20260903113553 20 144 8.0 8.0 0.00 0.00 0.00 89 1016.4
20260903113049 21 138 3.2 6.4 0.00 0.00 0.00 88 1016.9
20260903112544 20 20 0.0 8.0 0.00 0.00 0.00 87 1017.4
20260903112039 21 347 4.8 6.4 0.00 0.00 0.00 88 1017.3
20260903111537 21 227 3.2 4.8 0.00 0.00 0.00 86 1017.1
20260903111034 21 4 0.0 0.0 0.00 0.00 0.00 83 1017.1
20260903110530 21 16 6.4 6.4 0.00 0.00 0.00 82 1017.0
20260903110030 21 29 4.8 11.3 0.00 0.00 0.00 81 1017.1
20260903105525 22 29 8.0 11.3 0.00 0.00 0.00 80 1016.9
20260903105019 22 65 8.0 16.1 0.00 0.00 0.00 79 1016.9
20260903104514 22 37 9.7 12.9 0.00 0.00 0.00 78 1017.0
20260903104010 22 355 11.3 17.7 0.00 0.00 0.00 77 1016.6
20260903103506 22 9 11.3 19.3 0.00 0.00 0.00 78 1016.6
20260903103002 22 57 11.3 17.7 0.00 0.00 0.00 78 1017.1
20260903102457 22 69 17.7 24.1 0.00 0.00 0.00 77 1017.1
20260903101955 23 8 17.7 35.4 0.00 0.00 0.00 77 1016.7
20260903101450 23 352 25.7 29.0 0.00 0.00 0.00 77 1017.3
20260903100946 23 355 20.9 24.1 0.00 0.00 0.00 82 1017.0
20260903100441 23 14 17.7 22.5 0.00 0.00 0.00 89 1016.3
20260903095938 23 232 0.0 1.6 0.00 0.00 0.00 89 1015.9
20260903095432 23 232 0.0 1.6 0.00 0.00 0.00 89 1015.8
20260903094928 23 232 1.6 1.6 0.00 0.00 0.00 89 1015.7
20260903094427 23 231 0.0 1.6 0.00 0.00 0.00 89 1015.6
20260903093923 23 246 3.2 4.8 0.00 0.00 0.00 89 1015.3
20260903093418 23 283 1.6 1.6 0.00 0.00 0.00 89 1015.1
20260903092914 23 283 0.0 1.6 0.00 0.00 0.00 89 1014.9
20260903092408 23 283 0.0 0.0 0.00 0.00 0.00 88 1015.2
20260903091906 23 282 1.6 1.6 0.00 0.00 0.00 87 1015.3
20260903091405 23 284 0.0 0.0 0.00 0.00 0.00 86 1015.3
20260903090901 23 284 1.6 1.6 0.00 0.00 0.00 86 1015.4
20260903090356 23 284 0.0 1.6 0.00 0.00 0.00 85 1015.2
20260903085853 23 284 1.6 1.6 0.00 0.00 0.00 84 1015.3
20260903085348 23 230 1.6 1.6 0.00 0.00 0.00 84 1015.2
20260903084847 23 273 1.6 1.6 0.00 0.00 0.00 84 1015.2
20260903084346 23 278 0.0 0.0 0.00 0.00 0.00 86 1015.1
20260903083841 23 284 3.2 4.8 0.00 0.00 0.00 86 1015.0
20260903083337 23 292 1.6 1.6 0.00 0.00 0.00 86 1015.1
20260903082835 23 292 0.0 0.0 0.00 0.00 0.00 85 1015.2
20260903082331 23 292 1.6 1.6 0.00 0.00 0.00 87 1015.0
20260903081826 23 292 0.0 1.6 0.00 0.00 0.00 87 1015.1
20260903081322 23 292 0.0 1.6 0.00 0.00 0.00 88 1015.4
20260903080818 23 308 1.6 4.8 0.00 0.00 0.00 86 1015.3
20260903080315 23 352 0.0 1.6 0.00 0.00 0.00 87 1015.4
20260903075814 23 352 1.6 1.6 0.00 0.00 0.00 88 1015.3
20260903075310 23 352 0.0 0.0 0.00 0.00 0.00 87 1015.5
20260903074809 23 352 0.0 0.0 0.00 0.00 0.00 86 1015.5
20260903074304 23 352 0.0 1.6 0.00 0.00 0.00 85 1015.4
20260903073800 24 352 0.0 1.6 0.00 0.00 0.00 84 1015.5
20260903073255 25 352 1.6 1.6 0.00 0.00 0.00 81 1015.4
20260903072751 25 352 0.0 0.0 0.00 0.00 0.00 79 1015.5
20260903072247 25 352 0.0 0.0 0.00 0.00 0.00 77 1015.5
20260903071743 25 352 0.0 0.0 0.00 0.00 0.00 74 1015.4
20260903071238 26 351 0.0 1.6 0.00 0.00 0.00 74 1015.4
20260903070738 26 12 0.0 1.6 0.00 0.00 0.00 73 1015.6
20260903070234 26 334 3.2 8.0 0.00 0.00 0.00 73 1015.5
20260903065729 26 298 4.8 6.4 0.00 0.00 0.00 76 1015.6
20260903065228 26 328 4.8 8.0 0.00 0.00 0.00 76 1015.8
20260903064727 26 335 6.4 12.9 0.00 0.00 0.00 78 1015.7
20260903064223 26 344 3.2 8.0 0.00 0.00 0.00 79 1015.9
20260903063719 26 261 8.0 11.3 0.00 0.00 0.00 79 1015.8
20260903063213 25 358 4.8 6.4 0.00 0.00 0.00 80 1016.0
20260903062709 25 359 6.4 11.3 0.00 0.00 0.00 83 1016.0
20260903062204 25 32 1.6 1.6 0.00 0.00 0.00 82 1015.6
20260903061700 25 33 3.2 1.6 0.00 0.00 0.00 81 1015.3
20260903061158 25 193 1.6 1.6 0.00 0.00 0.00 80 1015.2
20260903060654 25 71 1.6 1.6 0.00 0.00 0.00 81 1015.1
20260903060143 25 331 0.0 0.0 0.00 0.00 0.00 80 1015.2
20260903055641 25 281 0.0 1.6 0.00 0.00 0.00 81 1015.2
20260903055139 25 295 4.8 6.4 0.00 0.00 0.00 81 1015.3
20260903054634 25 272 4.8 4.8 0.00 0.00 0.00 81 1015.2
20260903054130 25 239 3.2 6.4 0.00 0.00 0.00 81 1015.3
20260903053626 25 295 3.2 4.8 0.00 0.00 0.00 81 1015.4
20260903053121 25 212 3.2 4.8 0.00 0.00 0.00 81 1015.3
20260903052617 25 134 1.6 4.8 0.00 0.00 0.00 80 1015.2
20260903052112 26 214 0.0 1.6 0.00 0.00 0.00 80 1015.1
20260903051612 26 222 0.0 4.8 0.00 0.00 0.00 80 1015.0
20260903051108 25 264 3.2 1.6 0.00 0.00 0.00 81 1015.0
20260903050602 25 104 1.6 1.6 0.00 0.00 0.00 81 1014.9
20260903050057 25 203 1.6 1.6 0.00 0.00 0.00 81 1014.8
20260903045556 26 232 1.6 6.4 0.00 0.00 0.00 81 1015.0
20260903045053 26 226 0.0 1.6 0.00 0.00 0.00 80 1014.8
20260903044549 26 268 1.6 4.8 0.00 0.00 0.00 80 1015.0
20260903044044 26 191 1.6 4.8 0.00 0.00 0.00 80 1015.0
20260903043540 26 267 1.6 1.6 0.00 0.00 0.00 80 1014.6
20260903043039 26 100 0.0 1.6 0.00 0.00 0.00 80 1014.6
20260903042534 26 219 4.8 6.4 0.00 0.00 0.00 80 1014.5
20260903042029 26 207 0.0 1.6 0.00 0.00 0.00 80 1014.4
20260903041526 26 224 1.6 1.6 0.00 0.00 0.00 80 1014.5
20260903041021 26 249 4.8 4.8 0.00 0.00 0.00 81 1014.4
20260903040519 26 230 0.0 1.6 0.00 0.00 0.00 81 1014.6
20260903040017 26 248 3.2 6.4 0.00 0.00 0.00 81 1014.1
20260903035512 26 206 3.2 6.4 0.00 0.00 0.00 81 1014.2
20260903035007 25 295 3.2 6.4 0.00 0.00 0.00 83 1014.0
20260903034501 25 223 0.0 4.8 0.00 0.00 0.00 83 1013.9
20260903033956 25 231 0.0 4.8 0.00 0.00 0.00 83 1014.1
20260903033452 25 237 3.2 4.8 0.00 0.00 0.00 85 1014.1
20260903032946 25 220 4.8 4.8 0.00 0.00 0.00 85 1014.2